When you browse on this site, cookies collect data to enhance your experience and personalize the content and advertising you see.
Visit our Privacy Policy to learn more. By continuing to use the site, you agree to this use of cookies and data.

Météo par heure à Río Galyegos

Ce jour, 20 Septembre, Dimanche

Heure Température Précipitation Vent Pression Humidité
00:00 0°C° 0 mm 9 m/s 764 mmHg 75%
01:00 0°C° 0 mm 8 m/s 764 mmHg 76%
02:00 0°C° 0 mm 8 m/s 764 mmHg 77%
03:00 -1°C° 0 mm 7 m/s 764 mmHg 78%
04:00 -1°C° 0 mm 7 m/s 764 mmHg 80%
05:00 -1°C° 0 mm 6 m/s 764 mmHg 79%
06:00 +1°C° 0 mm 6 m/s 764 mmHg 78%
07:00 +1°C° 0 mm 6 m/s 764 mmHg 77%
08:00 +3°C° 0 mm 6 m/s 763 mmHg 73%
09:00 +5°C° 0 mm 6 m/s 763 mmHg 68%
10:00 +8°C° 0 mm 6 m/s 763 mmHg 64%
11:00 +9°C° 0 mm 6 m/s 762 mmHg 61%
12:00 +11°C° 0 mm 7 m/s 762 mmHg 57%
13:00 +12°C° 0 mm 7 m/s 762 mmHg 53%
14:00 +13°C° 0 mm 6 m/s 761 mmHg 53%
15:00 +13°C° 0 mm 6 m/s 761 mmHg 52%
16:00 +13°C° 0 mm 5 m/s 760 mmHg 52%
17:00 +12°C° 0 mm 4 m/s 760 mmHg 52%
18:00 +11°C° 0 mm 4 m/s 760 mmHg 52%
19:00 +10°C° 0 mm 3 m/s 760 mmHg 51%
20:00 +9°C° 0 mm 3 m/s 759 mmHg 52%
21:00 +9°C° 0 mm 3 m/s 758 mmHg 53%
22:00 +9°C° 0 mm 3 m/s 758 mmHg 54%
23:00 +7°C° 0 mm 4 m/s 757 mmHg 56%

Demain, 21 Septembre, Lundi

Heure Température Précipitation Vent Pression Humidité
00:00 +7°C° 0 mm 4 m/s 757 mmHg 57%
01:00 +7°C° 0 mm 4 m/s 756 mmHg 59%
02:00 +6°C° 0 mm 4 m/s 756 mmHg 61%
03:00 +6°C° 0 mm 4 m/s 755 mmHg 64%
04:00 +5°C° 0 mm 4 m/s 754 mmHg 67%
05:00 +7°C° 0 mm 3 m/s 754 mmHg 66%
06:00 +7°C° 0 mm 2 m/s 753 mmHg 66%
07:00 +8°C° 0 mm 1 m/s 752 mmHg 65%
08:00 +9°C° 0 mm 1 m/s 752 mmHg 61%
09:00 +9°C° 0 mm 2 m/s 751 mmHg 56%
10:00 +10°C° 0 mm 3 m/s 751 mmHg 51%
11:00 +11°C° 0 mm 3 m/s 750 mmHg 49%
12:00 +11°C° 0 mm 3 m/s 749 mmHg 47%
13:00 +12°C° 0 mm 3 m/s 749 mmHg 45%
14:00 +11°C° 0 mm 3 m/s 748 mmHg 47%
15:00 +11°C° 0 mm 3 m/s 748 mmHg 50%
16:00 +11°C° 0 mm 3 m/s 748 mmHg 53%
17:00 +10°C° 0 mm 3 m/s 747 mmHg 57%
18:00 +9°C° 0 mm 2 m/s 747 mmHg 61%
19:00 +8°C° 0 mm 2 m/s 747 mmHg 65%
20:00 +8°C° 0 mm 2 m/s 747 mmHg 66%
21:00 +8°C° 0 mm 3 m/s 747 mmHg 67%
22:00 +7°C° 0 mm 3 m/s 747 mmHg 68%
23:00 +7°C° 0 mm 3 m/s 746 mmHg 69%

Après-demain, 22 Septembre, Mardi

Heure Température Précipitation Vent Pression Humidité
00:00 +7°C° 0 mm 3 m/s 746 mmHg 71%
01:00 +5°C° 0 mm 4 m/s 746 mmHg 72%
02:00 +5°C° 0 mm 4 m/s 746 mmHg 74%
03:00 +5°C° 0 mm 3 m/s 746 mmHg 75%
04:00 +5°C° 0 mm 3 m/s 746 mmHg 76%
05:00 +5°C° 0 mm 5 m/s 746 mmHg 76%
06:00 +4°C° 0 mm 7 m/s 747 mmHg 77%
07:00 +3°C° 0 mm 9 m/s 747 mmHg 77%
08:00 +5°C° 0 mm 10 m/s 748 mmHg 70%
09:00 +5°C° 0 mm 12 m/s 748 mmHg 63%
10:00 +6°C° 0 mm 14 m/s 749 mmHg 56%
11:00 +7°C° 0 mm 13 m/s 749 mmHg 53%
12:00 +8°C° 0 mm 13 m/s 750 mmHg 50%
13:00 +8°C° 0 mm 13 m/s 750 mmHg 47%
14:00 +8°C° 0 mm 12 m/s 750 mmHg 48%
15:00 +7°C° 0 mm 12 m/s 751 mmHg 48%
16:00 +7°C° 0 mm 11 m/s 751 mmHg 48%
17:00 +6°C° 0 mm 9 m/s 751 mmHg 53%
18:00 +5°C° 0 mm 8 m/s 752 mmHg 58%
19:00 +4°C° 0 mm 6 m/s 752 mmHg 63%
20:00 +4°C° 0 mm 6 m/s 752 mmHg 63%
21:00 +5°C° 0 mm 5 m/s 753 mmHg 64%
22:00 +4°C° 0 mm 4 m/s 753 mmHg 64%
23:00 +5°C° 0 mm 5 m/s 753 mmHg 63%

23 Septembre, Mercredi

Heure Température Précipitation Vent Pression Humidité
00:00 +5°C° 0 mm 5 m/s 753 mmHg 63%
01:00 +5°C° 0 mm 5 m/s 753 mmHg 62%
02:00 +4°C° 0.2 mm 6 m/s 754 mmHg 68%
03:00 +4°C° 0.2 mm 6 m/s 755 mmHg 73%
04:00 +3°C° 0.2 mm 6 m/s 756 mmHg 79%
05:00 +3°C° 0 mm 6 m/s 757 mmHg 74%
06:00 +4°C° 0 mm 6 m/s 757 mmHg 70%
07:00 +5°C° 0 mm 5 m/s 758 mmHg 65%
08:00 +6°C° 0 mm 5 m/s 758 mmHg 63%
09:00 +7°C° 0 mm 5 m/s 758 mmHg 60%
10:00 +8°C° 0 mm 5 m/s 758 mmHg 58%
11:00 +9°C° 0 mm 6 m/s 758 mmHg 55%
12:00 +10°C° 0 mm 6 m/s 758 mmHg 52%
13:00 +11°C° 0 mm 7 m/s 757 mmHg 50%
14:00 +11°C° 0 mm 7 m/s 757 mmHg 48%
15:00 +11°C° 0 mm 6 m/s 756 mmHg 46%
16:00 +12°C° 0 mm 5 m/s 756 mmHg 44%
17:00 +10°C° 0 mm 5 m/s 755 mmHg 47%
18:00 +10°C° 0 mm 4 m/s 755 mmHg 50%
19:00 +8°C° 0 mm 4 m/s 755 mmHg 53%
20:00 +8°C° 0 mm 4 m/s 754 mmHg 54%
21:00 +7°C° 0 mm 4 m/s 754 mmHg 56%
22:00 +7°C° 0 mm 5 m/s 754 mmHg 57%
23:00 +7°C° 0 mm 5 m/s 753 mmHg 59%

24 Septembre, Jeudi

Heure Température Précipitation Vent Pression Humidité
00:00 +6°C° 0 mm 4 m/s 753 mmHg 61%
01:00 +6°C° 0 mm 4 m/s 752 mmHg 63%
02:00 +7°C° 0 mm 3 m/s 752 mmHg 64%
03:00 +7°C° 0 mm 3 m/s 751 mmHg 64%
04:00 +6°C° 0 mm 2 m/s 751 mmHg 65%
05:00 +7°C° 0 mm 3 m/s 751 mmHg 65%
06:00 +7°C° 0 mm 3 m/s 751 mmHg 65%
07:00 +7°C° 0 mm 3 m/s 752 mmHg 65%
08:00 +5°C° 0.2 mm 6 m/s 752 mmHg 69%
09:00 +5°C° 0.2 mm 8 m/s 752 mmHg 73%
10:00 +4°C° 0.2 mm 11 m/s 752 mmHg 77%
11:00 +6°C° 0.3 mm 11 m/s 753 mmHg 72%
12:00 +5°C° 0.3 mm 12 m/s 753 mmHg 67%
13:00 +5°C° 0.3 mm 12 m/s 753 mmHg 62%
14:00 +7°C° 0 mm 12 m/s 753 mmHg 56%
15:00 +7°C° 0 mm 12 m/s 753 mmHg 50%
16:00 +7°C° 0 mm 12 m/s 754 mmHg 44%
17:00 +6°C° 0 mm 11 m/s 754 mmHg 48%
18:00 +5°C° 0 mm 10 m/s 755 mmHg 53%
19:00 +3°C° 0 mm 9 m/s 756 mmHg 57%
20:00 +2°C° 0 mm 9 m/s 756 mmHg 59%
21:00 +2°C° 0 mm 10 m/s 757 mmHg 62%
22:00 +2°C° 0 mm 10 m/s 757 mmHg 64%
23:00 +1°C° 0 mm 9 m/s 757 mmHg 67%

25 Septembre, Vendredi

Heure Température Précipitation Vent Pression Humidité
00:00 +2°C° 0 mm 7 m/s 757 mmHg 69%
01:00 +2°C° 0 mm 6 m/s 758 mmHg 71%
02:00 +2°C° 0 mm 5 m/s 758 mmHg 72%
03:00 +3°C° 0 mm 4 m/s 758 mmHg 72%
04:00 +3°C° 0 mm 4 m/s 758 mmHg 72%
05:00 +3°C° 0 mm 4 m/s 758 mmHg 75%
06:00 +3°C° 0 mm 5 m/s 758 mmHg 77%
07:00 +3°C° 0 mm 6 m/s 758 mmHg 80%
08:00 +5°C° 0 mm 6 m/s 758 mmHg 69%
09:00 +8°C° 0 mm 5 m/s 758 mmHg 57%
10:00 +9°C° 0 mm 5 m/s 758 mmHg 46%
11:00 +10°C° 0 mm 5 m/s 758 mmHg 44%
12:00 +11°C° 0 mm 6 m/s 757 mmHg 41%
13:00 +11°C° 0 mm 6 m/s 757 mmHg 39%
14:00 +11°C° 0 mm 6 m/s 757 mmHg 40%
15:00 +12°C° 0 mm 5 m/s 756 mmHg 41%
16:00 +12°C° 0 mm 5 m/s 756 mmHg 42%
17:00 +10°C° 0 mm 5 m/s 756 mmHg 46%
18:00 +9°C° 0 mm 5 m/s 757 mmHg 49%
19:00 +8°C° 0 mm 5 m/s 757 mmHg 53%
20:00 +7°C° 0 mm 6 m/s 757 mmHg 60%
21:00 +5°C° 0 mm 6 m/s 757 mmHg 68%
22:00 +5°C° 0 mm 7 m/s 758 mmHg 75%
23:00 +5°C° 0 mm 7 m/s 758 mmHg 73%
Voir plus